Theta_e
304 302 303 301 301 305 306 305 305 303 302 303 302 301 303 302 300 300 299 298 297 298 297 299 300 300 301 302 303 303 303 300 299 299 298 298 298 298 298 298 298 298 298 298
301 303 303 302 302 303 302 303 303 303 303 302 301 302 303 302 304 301 299 297 299 298 296 295 298 300 302 302 303 303 300 299 299 298 298 298 297 297 297 298 299 300 301 301
303 304 301 302 302 302 302 303 303 304 301 302 300 304 306 304 303 300 297 298 297 297 297 296 297 299 300 301 300 299 299 300 299 298 298 297 297 297 299 300 301 301 301 301
301 300 301 301 302 301 303 301 301 302 300 302 299 308 306 304 302 300 297 295 296 297 297 297 297 298 299 300 299 299 300 299 298 297 297 297 298 298 300 300 299 299 298 298
303 300 300 301 301 301 302 300 300 302 299 294 298 300 304 302 304 302 299 297 296 297 297 297 297 299 299 299 299 300 299 298 297 297 298 300 300 299 298 297 296 296 296 295
300 299 300 300 300 301 299 301 302 301 297 298 297 301 306 303 302 300 300 298 297 297 297 296 298 299 300 299 299 299 298 297 297 299 300 299 297 296 295 295 294 294 293 293
301 300 299 300 301 301 301 301 299 304 302 307 301 298 304 301 299 298 299 298 298 297 296 296 297 298 298 299 298 297 297 297 298 299 298 297 296 295 294 293 293 293 292 292
304 308 300 299 300 302 299 301 305 305 310 309 299 303 305 300 298 299 299 298 298 298 297 298 298 298 298 298 297 296 297 298 298 297 296 296 295 294 293 293 292 292 292 292
305 305 300 300 299 300 301 301 301 296 286 300 302 303 302 299 299 298 298 298 299 299 297 299 297 297 297 296 295 297 298 297 296 296 296 295 294 293 292 291 291 291 291 291
303 309 300 300 300 300 299 299 304 305 307 303 304 302 305 299 299 298 299 300 300 299 298 296 296 296 296 296 296 297 296 296 296 296 295 294 293 292 291 291 291 290 290 290
299 304 301 299 300 301 299 300 301 306 309 309 306 309 303 299 299 300 300 301 300 299 296 296 295 295 295 294 295 295 296 296 295 295 294 294 293 291 291 290 290 290 290 290
299 301 298 301 297 296 299 300 302 310 307 301 303 305 302 298 300 300 300 300 300 298 296 295 294 294 294 294 294 294 295 295 295 294 294 293 292 291 291 290 290 290 289 289
300 297 294 301 301 298 298 300 300 299 299 301 304 304 299 298 299 300 299 298 294 295 294 293 292 292 292 293 292 292 294 294 294 293 293 293 291 291 290 289 290 289 290 290
300 298 299 303 301 300 300 298 299 300 297 301 304 304 303 301 299 299 299 296 293 293 293 292 291 291 292 292 291 291 292 293 293 293 293 292 291 291 290 289 289 289 289 290
297 294 296 295 301 302 302 300 298 299 300 301 303 303 303 302 300 299 298 298 294 292 292 292 292 291 292 293 292 292 292 292 293 293 293 292 291 290 290 289 289 289 289 290
296 293 294 294 291 299 304 303 301 298 299 299 300 301 301 301 298 297 296 294 292 291 291 290 291 291 292 292 292 292 292 291 293 293 292 291 290 290 290 289 289 289 289 289
297 295 297 294 289 290 301 302 302 303 299 301 303 303 300 298 298 297 293 294 293 291 288 288 289 290 292 293 292 292 291 290 292 290 292 291 290 289 289 289 289 289 289 289
291 293 296 292 293 301 298 296 298 301 302 300 301 300 298 297 297 296 294 293 292 287 287 289 290 293 294 293 292 292 291 290 292 291 292 291 289 288 288 289 289 288 289 289
297 301 300 298 287 293 298 295 296 297 297 297 298 298 298 297 296 296 293 291 291 285 286 291 294 294 294 293 293 292 291 290 292 293 292 291 290 289 288 288 288 288 288 288
296 301 303 289 299 294 293 294 293 296 298 295 296 297 297 294 297 294 293 291 289 289 293 295 294 293 294 294 292 291 291 290 291 293 293 292 290 289 288 288 288 287 287 288
301 302 303 301 301 293 293 294 293 294 296 295 294 295 292 295 295 294 293 294 294 293 295 296 295 295 293 293 293 292 291 291 292 293 293 292 290 288 288 288 287 287 287 287
298 301 302 301 302 301 293 291 296 295 295 296 295 294 292 292 293 292 292 294 292 287 293 294 294 294 294 292 292 292 291 293 292 292 292 292 290 288 288 287 287 287 287 286
296 293 294 297 298 296 291 295 292 293 294 295 294 293 292 293 293 293 292 291 290 291 293 294 293 293 294 293 292 291 293 292 291 291 292 292 290 289 288 287 287 286 287 287
291 292 294 293 294 293 293 292 293 292 293 294 294 294 293 293 292 291 290 290 290 291 292 294 292 290 292 296 293 292 292 292 290 290 291 292 291 289 288 287 286 287 287 287
294 291 293 292 294 294 294 292 292 291 292 292 292 292 292 292 291 290 290 289 289 291 293 293 292 291 292 295 295 294 292 292 292 290 290 292 291 290 288 287 287 286 287 287
292 294 295 295 295 294 294 293 293 291 291 291 292 291 290 290 290 290 289 289 289 289 290 291 292 291 293 294 294 294 293 291 291 291 290 291 292 290 289 288 287 287 286 287
Wind_Speed
1 3 8 10 7 1 2 3 4 2 2 2 4 9 20 7 6 9 8 8 7 7 1 8 14 15 16 14 15 13 12 9 3 4 8 10 12 15 14 15 17 18 18 19
3 8 4 3 4 5 4 2 5 3 2 1 4 12 19 7 3 2 6 7 2 5 5 10 17 18 16 16 13 12 10 4 3 8 10 10 15 15 19 18 18 20 21 21
6 1 4 3 3 4 3 4 3 3 4 3 7 8 4 2 4 5 7 4 5 6 9 8 12 15 15 14 12 10 4 1 5 10 13 15 18 19 21 22 23 22 22 24
5 2 4 3 3 5 2 2 3 2 4 3 4 4 4 5 6 6 6 7 6 7 6 6 9 12 14 13 10 6 2 3 8 12 14 15 16 19 23 23 27 30 29 27
5 4 3 3 4 4 3 3 4 3 4 3 4 3 7 4 5 5 4 5 5 5 7 7 7 12 11 9 6 3 3 6 10 13 14 14 16 19 25 29 27 29 29 26
2 0 2 3 3 2 6 5 5 4 3 2 4 4 4 2 4 5 2 3 5 6 6 5 6 9 7 5 4 2 5 8 11 12 12 15 19 22 23 25 26 25 25 25
1 3 2 3 4 3 3 5 2 4 2 5 3 3 7 6 3 3 6 5 4 6 6 5 5 5 3 4 3 4 8 11 12 15 17 17 18 19 20 22 21 22 20 20
6 4 7 4 4 5 5 6 5 6 3 3 3 5 3 4 5 1 4 5 5 4 3 3 2 2 2 1 4 7 9 12 15 18 19 20 22 21 22 20 19 19 19 20
4 1 2 2 1 2 4 4 3 7 1 3 2 4 4 2 2 4 7 7 4 3 2 1 3 3 3 4 5 5 8 12 15 18 20 22 23 24 24 22 20 21 20 21
4 2 0 1 1 0 2 3 3 1 1 3 4 5 4 7 7 7 6 6 3 3 4 4 5 5 7 8 7 8 10 13 16 19 20 21 22 22 25 22 23 21 22 23
3 2 1 2 6 7 2 2 1 2 2 4 1 5 5 11 9 9 7 4 2 3 5 5 4 8 8 8 8 10 11 13 16 18 19 19 21 23 24 25 23 22 22 22
5 4 4 4 1 0 1 4 6 4 5 0 2 5 3 10 8 9 7 4 2 3 4 4 5 7 8 9 11 12 13 15 15 17 20 19 22 23 23 22 24 23 22 23
6 1 2 7 3 1 4 5 3 4 3 6 5 5 2 5 6 7 5 3 4 3 3 3 4 6 8 10 11 12 13 14 13 16 19 19 23 22 23 25 24 24 24 25
3 2 6 8 5 4 5 6 5 5 3 5 8 3 4 6 8 6 4 6 5 5 5 3 4 5 7 8 10 11 13 12 14 18 21 20 23 22 24 27 25 26 27 27
4 5 4 3 2 2 3 4 9 10 6 7 5 13 12 8 9 8 7 2 4 7 7 5 4 5 9 13 14 14 15 15 14 20 23 22 24 26 26 25 26 27 27 27
1 2 2 4 3 1 5 9 8 7 7 11 9 18 11 8 6 7 9 5 6 6 7 5 5 7 11 13 15 14 14 16 14 18 21 24 25 26 27 27 27 28 28 27
6 6 4 6 2 3 8 17 13 11 6 10 12 23 5 6 9 8 7 8 8 7 5 5 5 8 13 14 13 14 14 15 13 15 19 23 22 22 26 27 26 26 26 25
7 6 3 3 2 6 5 0 2 16 16 15 17 16 6 9 5 8 7 6 8 6 5 5 8 8 10 12 13 15 16 15 14 17 19 22 22 23 25 26 25 25 24 23
6 5 3 5 5 7 13 6 7 7 9 13 17 16 16 5 1 4 6 7 7 8 7 7 6 7 9 12 12 14 17 16 16 17 18 20 21 23 23 23 24 24 23 23
9 11 8 3 6 10 4 4 5 5 10 8 12 16 9 7 3 4 7 6 6 8 7 6 4 4 8 9 12 12 16 17 19 16 16 17 17 20 21 22 23 23 21 21
10 12 19 12 8 8 6 4 6 5 4 2 7 9 6 6 6 3 7 4 4 6 9 7 5 7 7 7 11 14 17 20 18 15 14 15 15 15 17 18 19 20 19 18
10 8 9 8 10 17 7 4 10 5 1 3 3 3 5 4 5 7 7 4 3 6 9 11 8 8 10 8 9 15 18 19 17 14 14 13 12 13 13 13 16 17 17 18
4 6 5 9 6 3 7 5 7 3 4 3 6 5 7 7 5 4 3 5 5 10 12 13 13 13 15 12 9 13 19 17 16 15 14 12 10 12 11 12 14 16 16 16
4 3 5 3 8 6 9 4 3 6 5 5 3 3 1 3 4 5 6 6 5 8 12 16 16 18 18 15 14 16 17 16 17 18 18 12 12 10 10 9 11 12 14 14
7 8 10 4 9 1 3 6 7 7 7 5 6 5 6 5 7 6 5 7 8 14 16 19 20 22 22 19 21 21 18 16 19 19 21 17 15 12 11 7 8 10 13 14
8 12 9 10 14 6 8 9 10 9 8 7 3 5 6 7 9 4 7 7 7 12 16 17 21 22 26 26 27 27 23 18 19 20 23 22 18 17 12 9 4 3 5 9
Wind_Direction
33 107 215 210 201 135 137 195 247 275 81 295 249 278 283 307 267 293 299 291 259 243 270 162 155 151 151 153 155 155 151 139 104 358 349 334 327 325 321 314 309 306 303 300
59 229 205 208 172 201 216 201 255 276 89 28 9 287 280 291 267 330 330 4 50 102 82 112 134 145 153 150 153 150 148 135 6 350 340 328 321 318 314 313 305 303 303 300
178 174 132 162 167 164 203 187 225 224 349 54 338 288 349 313 355 41 23 22 58 102 110 108 114 132 138 142 145 148 153 316 329 332 329 321 315 310 312 314 311 309 306 302
235 273 171 159 209 146 232 158 112 90 63 230 5 276 325 349 18 37 40 56 73 82 75 96 116 130 149 157 160 171 210 315 332 332 327 326 319 313 312 310 308 306 306 304
235 167 169 170 208 169 205 101 101 91 95 65 321 84 270 352 359 5 70 90 90 105 122 137 144 154 161 168 176 211 294 324 328 326 324 322 315 308 306 306 310 310 310 310
217 278 156 179 88 90 140 81 55 65 95 14 246 133 286 354 304 305 79 103 127 133 126 115 126 153 164 180 204 270 307 325 323 326 326 317 308 308 309 311 313 312 312 310
180 204 172 154 103 41 99 92 338 355 14 219 151 68 241 300 309 240 143 148 151 128 128 150 161 185 185 218 258 304 319 329 329 323 321 320 314 312 309 313 310 310 308 309
165 274 172 178 196 173 176 163 163 205 197 246 6 238 224 245 300 61 115 119 101 121 165 186 228 324 302 253 307 318 324 323 325 328 323 325 325 321 313 310 304 299 297 297
156 204 30 48 50 135 179 192 143 105 65 49 236 275 328 81 107 117 98 83 94 153 137 88 341 4 349 335 333 332 326 325 328 330 332 330 328 319 311 306 301 296 290 291
187 87 134 119 73 346 196 163 103 7 146 261 290 280 213 188 180 142 115 70 17 348 327 339 347 339 337 331 320 307 314 319 327 331 333 329 319 311 314 307 308 302 297 300
138 101 192 118 196 182 144 226 239 116 140 174 218 256 219 174 181 151 152 177 176 303 329 322 328 321 315 306 301 303 306 315 323 328 331 326 319 314 315 311 311 307 303 302
178 130 169 194 334 351 258 214 178 146 219 219 140 273 147 166 169 152 177 197 254 294 286 301 304 315 318 311 304 300 302 308 318 323 332 319 315 321 320 312 310 313 304 301
185 246 53 345 1 40 217 200 154 104 81 192 145 253 18 161 178 188 181 165 230 209 253 264 281 293 297 291 293 295 293 298 310 321 330 321 323 320 318 316 309 308 308 307
112 146 167 188 191 133 191 195 179 149 145 168 223 249 200 203 225 251 253 216 174 209 245 261 288 277 291 299 302 302 304 302 314 329 335 330 330 323 319 323 316 312 309 304
134 200 162 261 285 179 220 197 185 201 190 182 203 220 238 228 230 242 237 230 196 222 233 240 267 296 326 336 332 324 320 320 322 333 340 331 330 329 323 318 315 319 311 309
148 216 114 320 359 358 273 251 210 206 220 245 265 266 251 259 205 225 239 241 219 233 245 258 280 304 324 330 323 318 317 318 318 329 339 331 334 332 326 322 317 316 312 313
162 138 139 254 6 83 286 237 212 219 196 203 233 249 266 232 229 235 235 211 220 227 236 274 277 291 309 319 321 316 318 316 313 320 333 333 330 324 322 322 319 314 309 312
150 149 182 193 125 212 241 354 222 223 235 218 247 256 213 234 236 227 218 198 214 215 240 252 255 282 320 331 326 319 316 313 309 316 327 334 330 328 324 323 322 317 312 312
164 187 179 184 211 305 283 199 177 170 253 217 230 250 251 237 210 274 217 198 192 191 210 225 272 287 313 338 329 317 312 309 303 308 319 329 329 331 329 324 324 319 319 318
178 190 204 145 195 212 258 227 146 112 267 216 197 232 243 127 208 246 187 181 214 206 210 230 261 290 331 344 328 311 304 303 295 303 312 323 326 330 331 326 330 324 327 317
193 205 220 215 230 275 218 188 147 146 249 177 189 237 150 188 209 205 142 173 209 213 210 225 267 302 322 341 325 308 304 297 312 296 308 320 323 325 334 338 340 331 335 329
185 190 211 219 217 240 158 75 197 198 245 136 131 149 193 226 155 152 175 185 255 264 257 239 251 279 305 338 331 312 305 321 310 295 300 316 318 322 337 346 354 347 349 355
225 187 185 194 212 211 197 178 204 148 156 139 133 146 137 153 185 172 249 267 261 268 277 267 253 262 285 301 325 308 321 318 309 288 290 302 304 313 334 345 358 345 352 2
236 180 217 84 231 213 210 216 173 176 173 153 123 119 155 207 202 210 225 238 241 273 267 280 260 249 264 303 310 310 318 318 302 285 282 285 282 295 318 350 23 359 354 9
200 148 210 262 258 157 202 209 183 182 163 147 206 185 205 220 261 213 235 245 240 254 278 284 269 260 271 293 303 308 311 315 301 286 277 270 268 268 289 318 17 28 23 25
196 206 200 220 225 201 226 196 192 170 186 208 245 283 250 207 248 265 286 287 276 277 287 287 293 280 272 284 293 297 299 308 296 282 272 262 259 258 262 272 291 17 19 35